�������l�o���
Date,Time,MP-1(��Sv/h),MP-2(��Sv/h),MP-3(��Sv/h),MP-4(��Sv/h),MP-5(��Sv/h),MP-6(��Sv/h),MP-7(��Sv/h),MP-8(��Sv/h),����,����(m/s),���J
2020/07/31,00:00,0.648,0.922,0.581,1.108,0.785,0.389,0.658,0.622,�k�k��,0.6,��
2020/07/31,00:10,0.649,0.924,0.579,1.108,0.784,0.390,0.661,0.623,���k��,0.6,��
2020/07/31,00:20,0.649,0.924,0.579,1.107,0.788,0.390,0.657,0.622,-,CALM,��
2020/07/31,00:30,0.648,0.923,0.579,1.110,0.787,0.391,0.660,0.623,�k��,0.9,��
2020/07/31,00:40,0.648,0.925,0.579,1.109,0.785,0.390,0.660,0.623,���쓌,0.6,��
2020/07/31,00:50,0.648,0.924,0.581,1.109,0.788,0.391,0.662,0.625,��쐼,0.6,��
2020/07/31,01:00,0.648,0.923,0.581,1.106,0.788,0.392,0.660,0.625,���쓌,0.6,��
2020/07/31,01:10,0.648,0.923,0.580,1.108,0.788,0.390,0.660,0.625,�쓌,0.9,��
2020/07/31,01:20,0.648,0.924,0.580,1.108,0.787,0.391,0.659,0.623,���k��,0.6,��
2020/07/31,01:30,0.650,0.924,0.580,1.108,0.787,0.390,0.659,0.622,��쓌,0.9,��
2020/07/31,01:40,0.649,0.925,0.580,1.110,0.787,0.389,0.661,0.622,��,0.6,��
2020/07/31,01:50,0.649,0.922,0.579,1.110,0.788,0.391,0.660,0.624,��,0.9,��
2020/07/31,02:00,0.648,0.925,0.580,1.110,0.788,0.391,0.661,0.624,��,1.5,��
2020/07/31,02:10,0.649,0.923,0.580,1.108,0.788,0.392,0.660,0.622,��,1.5,��
2020/07/31,02:20,0.651,0.923,0.581,1.109,0.788,0.392,0.661,0.624,��,3.0,��
2020/07/31,02:30,0.651,0.922,0.580,1.109,0.787,0.391,0.659,0.624,��,2.3,��
2020/07/31,02:40,0.649,0.924,0.581,1.110,0.786,0.391,0.660,0.625,��,1.7,��
2020/07/31,02:50,0.649,0.922,0.581,1.110,0.789,0.391,0.661,0.626,��,1.9,��
2020/07/31,03:00,0.650,0.923,0.581,1.110,0.789,0.391,0.661,0.624,��,1.2,��
2020/07/31,03:10,0.650,0.923,0.580,1.109,0.788,0.391,0.661,0.624,��쐼,1.2,��
2020/07/31,03:20,0.649,0.922,0.580,1.109,0.788,0.390,0.660,0.623,��쓌,0.9,��
2020/07/31,03:30,0.649,0.921,0.579,1.111,0.788,0.390,0.660,0.625,��쓌,1.2,��
2020/07/31,03:40,0.649,0.922,0.580,1.109,0.788,0.390,0.661,0.623,��,1.2,��
2020/07/31,03:50,0.649,0.923,0.580,1.111,0.788,0.392,0.660,0.624,��쐼,2.0,��
2020/07/31,04:00,0.649,0.923,0.582,1.108,0.789,0.390,0.661,0.625,��쐼,1.5,��
2020/07/31,04:10,0.648,0.923,0.581,1.111,0.788,0.391,0.662,0.625,�쐼,1.5,��
2020/07/31,04:20,0.649,0.922,0.582,1.111,0.789,0.391,0.661,0.626,��,1.7,��
2020/07/31,04:30,0.648,0.922,0.581,1.112,0.790,0.389,0.661,0.624,���k��,1.5,��
2020/07/31,04:40,0.648,0.923,0.582,1.111,0.788,0.391,0.661,0.624,�k��,0.9,��
2020/07/31,04:50,0.649,0.923,0.582,1.111,0.790,0.389,0.660,0.625,�k�k��,0.8,��
2020/07/31,05:00,0.652,0.925,0.582,1.112,0.789,0.391,0.662,0.625,�k�k��,0.9,��
2020/07/31,05:10,0.652,0.925,0.582,1.110,0.790,0.389,0.660,0.625,�k�k��,1.5,��
2020/07/31,05:20,0.650,0.926,0.582,1.109,0.789,0.390,0.659,0.622,�k��,2.3,��
2020/07/31,05:30,0.651,0.926,0.583,1.112,0.790,0.390,0.660,0.625,�k��,2.6,��
2020/07/31,05:40,0.651,0.923,0.582,1.111,0.789,0.390,0.662,0.624,�k��,2.6,��
2020/07/31,05:50,0.652,0.926,0.583,1.112,0.791,0.391,0.660,0.624,�k��,2.6,��
2020/07/31,06:00,0.653,0.927,0.584,1.112,0.792,0.390,0.661,0.626,�k��,2.3,��
2020/07/31,06:10,0.650,0.926,0.582,1.114,0.791,0.389,0.661,0.626,�k��,2.6,��
2020/07/31,06:20,0.651,0.927,0.584,1.113,0.790,0.386,0.661,0.626,�k�k��,3.0,��
2020/07/31,06:30,0.650,0.926,0.583,1.113,0.790,0.387,0.659,0.625,�k�k��,3.2,��
2020/07/31,06:40,0.651,0.925,0.582,1.113,0.791,0.386,0.661,0.623,�k�k��,3.1,��
2020/07/31,06:50,0.651,0.926,0.581,1.110,0.792,0.389,0.659,0.624,�k�k��,2.6,��
2020/07/31,07:00,0.650,0.923,0.582,1.111,0.793,0.390,0.660,0.625,�k��,2.2,��
2020/07/31,07:10,0.651,0.924,0.583,1.112,0.792,0.390,0.662,0.623,�k��,1.5,��
2020/07/31,07:20,0.651,0.921,0.583,1.111,0.791,0.389,0.662,0.625,�k�k��,1.1,�L
2020/07/31,07:30,0.652,0.924,0.583,1.113,0.789,0.390,0.660,0.623,-,CALM,�L
2020/07/31,07:40,0.651,0.924,0.583,1.111,0.790,0.391,0.661,0.625,�쓌,0.9,�L
2020/07/31,07:50,0.652,0.924,0.584,1.114,0.792,0.390,0.661,0.624,��쓌,1.5,�L
2020/07/31,08:00,0.650,0.924,0.583,1.112,0.790,0.390,0.659,0.624,��쓌,1.5,�L
2020/07/31,08:10,0.652,0.923,0.584,1.111,0.791,0.390,0.662,0.624,��쓌,1.7,�L
2020/07/31,08:20,0.650,0.922,0.582,1.112,0.791,0.390,0.661,0.623,��쓌,2.0,�L
2020/07/31,08:30,0.650,0.920,0.584,1.114,0.791,0.389,0.660,0.625,��쓌,1.5,�L
2020/07/31,08:40,0.650,0.918,0.586,1.112,0.790,0.390,0.660,0.626,���쓌,0.9,�L
2020/07/31,08:50,0.652,0.917,0.585,1.112,0.788,0.390,0.660,0.626,�쓌,0.9,�L
2020/07/31,09:00,0.650,0.917,0.585,1.111,0.790,0.391,0.659,0.623,��,0.6,�L
2020/07/31,09:10,0.651,0.916,0.584,1.114,0.790,0.391,0.660,0.623,-,CALM,�L
2020/07/31,09:20,0.648,0.917,0.583,1.113,0.789,0.391,0.659,0.622,-,CALM,�L
2020/07/31,09:30,0.648,0.915,0.582,1.111,0.789,0.391,0.658,0.624,�k�k��,0.6,�L
2020/07/31,09:40,0.649,0.910,0.583,1.108,0.788,0.389,0.657,0.624,�k�k��,1.2,�L
2020/07/31,09:50,0.649,0.914,0.582,1.109,0.789,0.391,0.659,0.624,�k�k��,1.5,�L
2020/07/31,10:00,0.645,0.912,0.581,1.110,0.788,0.390,0.657,0.623,�k,2.6,�L
2020/07/31,10:10,0.648,0.911,0.581,1.110,0.789,0.390,0.659,0.622,�k�k��,2.6,�L
2020/07/31,10:20,0.647,0.912,0.578,1.107,0.787,0.389,0.658,0.622,�k�k��,3.5,�L
2020/07/31,10:30,0.647,0.912,0.580,1.110,0.785,0.391,0.658,0.624,�k�k��,3.0,�L
2020/07/31,10:40,0.643,0.914,0.578,1.109,0.785,0.388,0.658,0.621,�k��,1.5,�L
2020/07/31,10:50,0.646,0.911,0.576,1.109,0.785,0.389,0.658,0.620,�k�k��,1.7,�L
2020/07/31,11:00,0.645,0.910,0.577,1.107,0.786,0.388,0.657,0.621,�k�k��,1.7,�L
2020/07/31,11:10,0.644,0.911,0.577,1.108,0.784,0.387,0.656,0.621,�k�k��,1.2,�L
2020/07/31,11:20,0.645,0.909,0.577,1.107,0.784,0.388,0.658,0.621,�k,0.9,�L
2020/07/31,11:30,0.642,0.909,0.575,1.107,0.784,0.387,0.658,0.620,�k�k��,1.2,��
2020/07/31,11:40,0.643,0.909,0.576,1.108,0.783,0.387,0.657,0.621,�k,0.9,�L
2020/07/31,11:50,0.643,0.912,0.575,1.108,0.784,0.387,0.658,0.621,�k,0.6,�L
2020/07/31,12:00,0.643,0.914,0.577,1.107,0.784,0.387,0.658,0.621,���쓌,1.2,�L
2020/07/31,12:10,0.645,0.918,0.578,1.108,0.785,0.390,0.659,0.620,��,2.0,�L
2020/07/31,12:20,0.646,0.915,0.578,1.110,0.785,0.388,0.657,0.621,�k��,1.9,�L
2020/07/31,12:30,0.646,0.916,0.579,1.109,0.785,0.388,0.657,0.620,�k�k��,2.3,�L
2020/07/31,12:40,0.646,0.915,0.579,1.107,0.786,0.387,0.657,0.621,�k,2.3,�L
2020/07/31,12:50,0.644,0.914,0.578,1.107,0.785,0.388,0.657,0.620,�k�k��,2.6,�L
2020/07/31,13:00,0.644,0.917,0.577,1.108,0.785,0.388,0.658,0.620,�k�k��,3.9,�L
2020/07/31,13:10,0.644,0.914,0.576,1.106,0.785,0.388,0.659,0.619,�k�k��,6.3,�L
2020/07/31,13:20,0.644,0.910,0.576,1.106,0.784,0.386,0.656,0.620,�k,6.6,�L
2020/07/31,13:30,0.644,0.913,0.576,1.108,0.785,0.388,0.657,0.619,�k�k��,4.3,��
2020/07/31,13:40,0.644,0.911,0.576,1.106,0.787,0.387,0.657,0.621,�k�k��,4.3,��
2020/07/31,13:50,0.645,0.911,0.577,1.104,0.782,0.387,0.659,0.619,�k��,1.9,�L
2020/07/31,14:00,0.644,0.912,0.577,1.104,0.784,0.387,0.658,0.620,��,1.2,�L
2020/07/31,14:10,0.641,0.909,0.576,1.105,0.780,0.388,0.657,0.619,��,2.6,�L
2020/07/31,14:20,0.642,0.908,0.577,1.105,0.780,0.387,0.654,0.618,�k��,0.8,�L
2020/07/31,14:30,0.644,0.908,0.577,1.106,0.781,0.387,0.656,0.619,�k��,1.2,�L
2020/07/31,14:40,0.645,0.909,0.578,1.103,0.782,0.388,0.657,0.620,�k��,1.2,�L
2020/07/31,14:50,0.643,0.909,0.578,1.106,0.782,0.388,0.656,0.620,���k��,0.9,��
2020/07/31,15:00,0.644,0.908,0.578,1.103,0.782,0.387,0.657,0.620,���k��,0.9,��
2020/07/31,15:10,0.643,0.912,0.577,1.105,0.783,0.386,0.657,0.619,�k��,1.7,��
2020/07/31,15:20,0.645,0.911,0.575,1.102,0.781,0.387,0.656,0.618,�k��,2.3,��
2020/07/31,15:30,0.644,0.909,0.576,1.101,0.782,0.386,0.656,0.620,�k�k��,2.6,��
2020/07/31,15:40,0.643,0.911,0.577,1.101,0.782,0.387,0.657,0.620,�k��,2.3,��
2020/07/31,15:50,0.642,0.913,0.577,1.099,0.782,0.386,0.657,0.619,�k��,3.0,��
2020/07/31,16:00,0.642,0.915,0.576,1.102,0.780,0.387,0.656,0.620,���k��,2.3,��
2020/07/31,16:10,0.642,0.912,0.576,1.100,0.782,0.385,0.658,0.620,��,1.7,��
2020/07/31,16:20,0.643,0.913,0.575,1.101,0.781,0.386,0.657,0.620,�k��,1.5,��
2020/07/31,16:30,0.641,0.915,0.577,1.103,0.782,0.387,0.657,0.619,�k��,1.4,��
2020/07/31,16:40,0.642,0.915,0.575,1.104,0.780,0.387,0.656,0.619,���k��,1.2,��
2020/07/31,16:50,0.640,0.916,0.575,1.102,0.781,0.385,0.656,0.618,���k��,1.1,��
2020/07/31,17:00,0.643,0.914,0.576,1.103,0.782,0.386,0.657,0.620,��,1.2,��
2020/07/31,17:10,0.641,0.915,0.576,1.103,0.780,0.385,0.657,0.618,�쓌,0.6,��
2020/07/31,17:20,0.641,0.914,0.577,1.106,0.782,0.385,0.658,0.619,��,0.9,��
2020/07/31,17:30,0.642,0.916,0.575,1.104,0.782,0.384,0.657,0.619,��,1.4,��
2020/07/31,17:40,0.642,0.915,0.575,1.105,0.782,0.385,0.656,0.619,��,1.9,��
2020/07/31,17:50,0.644,0.913,0.575,1.103,0.784,0.387,0.655,0.618,��쐼,3.0,��
2020/07/31,18:00,0.642,0.916,0.576,1.102,0.783,0.387,0.656,0.620,��쐼,2.8,��
2020/07/31,18:10,0.643,0.915,0.575,1.103,0.782,0.387,0.658,0.619,��,1.4,��
2020/07/31,18:20,0.641,0.917,0.577,1.105,0.783,0.387,0.656,0.618,��쓌,2.3,��
2020/07/31,18:30,0.643,0.917,0.576,1.105,0.782,0.386,0.656,0.620,��,1.7,��
2020/07/31,18:40,0.643,0.917,0.576,1.106,0.782,0.387,0.657,0.620,��,2.0,��
2020/07/31,18:50,0.643,0.917,0.575,1.106,0.784,0.389,0.659,0.619,��,2.5,��
2020/07/31,19:00,0.644,0.916,0.575,1.107,0.785,0.387,0.658,0.618,��쓌,1.7,��
2020/07/31,19:10,0.644,0.918,0.577,1.109,0.784,0.389,0.656,0.620,��쓌,1.1,��
2020/07/31,19:20,0.643,0.918,0.578,1.108,0.786,0.388,0.655,0.623,��쓌,0.6,��
2020/07/31,19:30,0.646,0.917,0.578,1.109,0.786,0.387,0.657,0.622,��쐼,1.2,��
2020/07/31,19:40,0.645,0.917,0.578,1.107,0.786,0.388,0.658,0.622,��쐼,1.1,��
2020/07/31,19:50,0.646,0.919,0.578,1.108,0.786,0.388,0.657,0.622,�쐼,0.9,��
2020/07/31,20:00,0.644,0.921,0.579,1.109,0.787,0.389,0.658,0.623,���쐼,1.4,��
2020/07/31,20:10,0.646,0.919,0.577,1.110,0.785,0.389,0.658,0.622,���k��,1.1,��
2020/07/31,20:20,0.644,0.920,0.577,1.108,0.786,0.388,0.659,0.623,�k�k��,1.7,��
2020/07/31,20:30,0.644,0.918,0.578,1.109,0.786,0.389,0.658,0.623,�k�k��,2.5,��
2020/07/31,20:40,0.645,0.919,0.579,1.109,0.788,0.388,0.659,0.622,�k,2.6,��
2020/07/31,20:50,0.645,0.920,0.578,1.109,0.787,0.388,0.659,0.623,�k,2.6,��
2020/07/31,21:00,0.643,0.918,0.580,1.109,0.787,0.388,0.659,0.622,�k,3.3,��
2020/07/31,21:10,0.644,0.919,0.579,1.108,0.788,0.388,0.659,0.622,�k,2.9,��
2020/07/31,21:20,0.647,0.919,0.578,1.108,0.786,0.389,0.660,0.620,�k,2.3,��
2020/07/31,21:30,0.644,0.920,0.579,1.110,0.786,0.387,0.660,0.622,�k,1.2,��
2020/07/31,21:40,0.646,0.920,0.580,1.107,0.787,0.388,0.659,0.622,�k,1.9,��
2020/07/31,21:50,0.645,0.918,0.579,1.110,0.785,0.389,0.660,0.622,�k,1.2,��
2020/07/31,22:00,0.645,0.916,0.577,1.112,0.786,0.387,0.660,0.621,�k,1.4,��
2020/07/31,22:10,0.645,0.920,0.578,1.111,0.788,0.388,0.660,0.622,�k,1.9,��
2020/07/31,22:20,0.645,0.918,0.578,1.109,0.786,0.390,0.660,0.621,�k�k��,1.1,��
2020/07/31,22:30,0.645,0.918,0.579,1.109,0.788,0.389,0.657,0.621,�k�k��,1.9,��
2020/07/31,22:40,0.644,0.918,0.579,1.110,0.786,0.388,0.658,0.623,�k�k��,1.7,��
2020/07/31,22:50,0.646,0.919,0.579,1.109,0.787,0.389,0.660,0.621,�k�k��,1.7,��
2020/07/31,23:00,0.646,0.918,0.578,1.109,0.790,0.389,0.659,0.622,�k,2.2,��
2020/07/31,23:10,0.647,0.920,0.581,1.109,0.788,0.390,0.660,0.622,�k�k��,1.7,��
2020/07/31,23:20,0.647,0.919,0.579,1.110,0.788,0.389,0.659,0.623,�k�k��,2.0,��
2020/07/31,23:30,0.647,0.921,0.579,1.108,0.787,0.388,0.660,0.622,���k��,1.9,��
2020/07/31,23:40,0.647,0.919,0.580,1.109,0.787,0.388,0.660,0.623,�k��,1.9,��
2020/07/31,23:50,0.647,0.920,0.580,1.109,0.789,0.390,0.658,0.624,�k�k��,1.2,��
